Regional Weather Roundup
Issued by NWS

Home | Current Version | Previous Version | Text Only | Print | Product List | Glossary On
Versions: 1 2 3 4 5 6 7 8 9 10 11 12 13 14 15 16 17 18 19 20 21 22 23 24 25 26 27 28 29 30 31 32 33 34 35 36 37 38 39 40 41 42 43 44 45 46 47 48 49 50
274
ASUS44 KJAN 270810
RWRMS

MISSISSIPPI HOURLY WEATHER ROUNDUP
NATIONAL WEATHER SERVICE JACKSON MS
200 AM CST TUE JAN 27 2015

NOTE: "FAIR: INDICATES FEW OR NO CLOUDS BELOW 12,000 FEET WITH NO
SIGNIFICANT WEATHER AND/OR OBSTRUCTIONS TO VISIBILITY.

MSZ001>002-007>008-010>013-018>021-025>028-034>036-270900-
NORTHWEST MISSISSIPPI

CITY           SKY/WX    TMP DP  RH WIND       PRES   REMARKS
CLARKSDALE     FAIR      45  37  76 W7        30.00S
CLEVELAND      FAIR      45  38  78 NW5       30.00S
GREENWOOD      CLEAR     44  35  70 CALM      30.00R
GREENVILLE     CLEAR     46  36  68 W8        30.00S
GRENADA        FAIR      41  36  81 W3        29.99R
OLIVE BRANCH   CLEAR     37  36  93 W3        29.95S
OXFORD         FAIR      34  32  93 W3        29.98R
TUNICA         SUNNY     43  36  75 W9        29.99R
$$

MSZ003>006-009-014>017-022>024-029>033-037>039-270900-
NORTHEAST MISSISSIPPI

CITY           SKY/WX    TMP DP  RH WIND       PRES   REMARKS
COLUMBUS AFB   CLEAR     29  27  91 S1        29.96S
CORINTH        FAIR      30  28  93 CALM      29.92S
GOLDN TRIANGLE CLEAR     36  30  80 S3        29.94S
STARKVILLE     FAIR      46  36  66 W7        29.96S
TUPELO         CLEAR     35  31  85 W3        29.94S
$$

MSZ040-058-270900-
CENTRAL MISSISSIPPI

CITY           SKY/WX    TMP DP  RH WIND       PRES   REMARKS
JACKSON INTL   CLEAR     44  34  67 SW5       30.01F
JACKSON HAWKNS CLEAR     47  34  60 NW7       30.02S
MERIDIAN KEY   CLEAR     33  31  92 S6        29.99F WCI  28
MERIDIAN NAS   CLEAR     42  33  70 W7        29.98F
RAYMOND        FAIR      36  32  87 MISG      30.03R
VICKSBURG      CLEAR     41  34  76 VRB3      30.04S
$$

MSZ059>079-270900-
SOUTH MISSISSIPPI

CITY           SKY/WX    TMP DP  RH WIND       PRES   REMARKS
BROOKHAVEN     FAIR      48  36  61 SW10      30.05F
HATTIESBURG    CLEAR     44  35  70 W3        30.04F
MCCOMB         CLEAR     44  34  67 W5        30.05F
NATCHEZ        CLEAR     45  34  65 SW8       30.06F
PINE BELT      CLEAR     41  32  70 CALM      30.03F
$$

MSZ080>082-270900-
COASTAL MISSISSIPPI

CITY           SKY/WX    TMP DP  RH WIND       PRES   REMARKS
BILOXI         CLEAR     47  36  66 W6        30.06F
PASCAGOULA     CLEAR     40  35  83 W3        30.07F
GULFPORT       CLEAR     43  34  70 CALM      30.06F
$$



USA.gov is the U.S. government's official web portal to all federal, state and local government web resources and services.